This is the latest recevied weather packets stored in our database for station/object DL9GRB-13. If no packets are shown the sender has not sent any weather packets the latest 1 day(s).
| Time | Temp. | Humidity | Pressure | Rain* | Wind** | Luminosity | Snow |
|---|---|---|---|---|---|---|---|
| 1778035928 | 7.78° C | 66% | 1007.6 hPa | 0 mm | - | 0 W/m² | - |
| 1778035568 | 7.78° C | 67% | 1007.7 hPa | 0 mm | - | 0 W/m² | - |
| 1778035388 | 7.78° C | 68% | 1007.7 hPa | 0 mm | - | 0 W/m² | - |
| 1778035208 | 7.78° C | 70% | 1007.7 hPa | 0 mm | - | 0 W/m² | - |
| 1778035028 | 7.78° C | 69% | 1007.7 hPa | 0 mm | - | 0 W/m² | - |
| 1778034848 | 7.78° C | 69% | 1007.8 hPa | 0 mm | - | 0 W/m² | - |
| 1778034668 | 7.78° C | 70% | 1007.7 hPa | 0 mm | - | 0 W/m² | - |
| 1778034488 | 7.78° C | 70% | 1007.7 hPa | 0 mm | - | 0 W/m² | - |
| 1778034308 | 7.22° C | 71% | 1007.9 hPa | 0 mm | - | 0 W/m² | - |
| 1778034128 | 6.67° C | 72% | 1007.7 hPa | 0 mm | - | 0 W/m² | - |
| 1778033948 | 6.67° C | 73% | 1007.6 hPa | 0 mm | - | 0 W/m² | - |
| 1778033768 | 6.67° C | 75% | 1007.9 hPa | 0 mm | - | 0 W/m² | - |
| 1778033588 | 6.11° C | 77% | 1008.1 hPa | 0 mm | - | 0 W/m² | - |
| 1778033408 | 5.56° C | 82% | 1008.1 hPa | 0 mm | - | 0 W/m² | - |
| 1778033228 | 5° C | 87% | 1008.1 hPa | 0 mm | - | 0 W/m² | - |
| 1778033048 | 4.44° C | 92% | 1008 hPa | 0 mm | - | 0 W/m² | - |
| 1778032868 | 3.89° C | 94% | 1008.1 hPa | 0 mm | - | 0 W/m² | - |
| 1778032688 | 3.89° C | 94% | 1008 hPa | 0 mm | - | 0 W/m² | - |
| 1778032508 | 3.89° C | 94% | 1008.1 hPa | 0 mm | - | 0 W/m² | - |
| 1778032328 | 3.89° C | 94% | 1008.3 hPa | 0 mm | - | 0 W/m² | - |
| 1778032148 | 3.89° C | 94% | 1008.1 hPa | 0 mm | - | 0 W/m² | - |
| 1778031968 | 3.33° C | 94% | 1008.2 hPa | 0 mm | - | 0 W/m² | - |
| 1778031788 | 3.33° C | 94% | 1008.1 hPa | 0 mm | - | 0 W/m² | - |
| 1778031608 | 3.33° C | 94% | 1008.1 hPa | 0 mm | - | 0 W/m² | - |
| 1778031428 | 3.33° C | 94% | 1008.1 hPa | 0 mm | - | 0 W/m² | - |
* Rain latest hour (hover to see other rain measurements)
** Current wind speed in m/s (hover to see current wind gust speed)